Location: Bay Ridge
(40.6340°N, 74.0146°W)
Time: 14:54:03
(UTC+00:00)

Cosmos 967 Rocket - Pass Details

Date: 15 November 2019
Orbit: 943 x 994 km, 65.8° (Epoch: 07 December)

Event Time Altitude Azimuth Distance (km) Brightness Sun altitude
Exits shadow 09:14:35 64° 209° (SSW) 1,069 4.5 -28.0°
Maximum altitude 09:15:41 90° 124° (SE) 975 4.4 -27.8°
Drops below altitude 10° 09:22:07 10° 31° (NNE) 2,737 7.2 -26.6°
Sets 09:24:42 0° 32° (NNE) 3,695 7.9 -26.1°
